Time,TemperatureF,DewpointF,PressureIn,WindDirection,WindDirectionDegrees,WindSpeedMPH,WindSpeedGustMPH,Humidity,HourlyPrecipIn,Conditions,Clouds,dailyrainin,SoftwareType,DateUTC
2013-06-26 00:02:00,76.1,71.0,32.13,East,84,0.0,-999.0,83,-99.99,,,0.01,weatherlink.com 1.10,2013-06-26 04:02:00,
2013-06-26 00:17:00,74.8,70.0,32.13,East,84,0.0,-999.0,86,-99.99,,,0.00,weatherlink.com 1.10,2013-06-26 04:17:00,
2013-06-26 00:32:00,73.9,70.0,32.13,East,83,0.0,-999.0,88,-99.99,,,0.00,weatherlink.com 1.10,2013-06-26 04:32:00,
2013-06-26 00:47:00,73.4,70.0,32.13,East,83,0.0,-999.0,89,-99.99,,,0.00,weatherlink.com 1.10,2013-06-26 04:47:00,
2013-06-26 01:02:00,73.0,70.0,32.13,East,84,0.0,-999.0,90,-99.99,,,0.00,weatherlink.com 1.10,2013-06-26 05:02:00,
2013-06-26 01:17:00,72.6,70.0,32.13,East,84,0.0,-999.0,91,-99.99,,,0.00,weatherlink.com 1.10,2013-06-26 05:17:00,
2013-06-26 01:32:00,72.1,70.0,32.13,East,84,0.0,-999.0,92,-99.99,,,0.00,weatherlink.com 1.10,2013-06-26 05:32:00,
2013-06-26 01:47:00,71.7,69.0,32.13,East,84,0.0,-999.0,92,-99.99,,,0.00,weatherlink.com 1.10,2013-06-26 05:47:00,
2013-06-26 02:02:00,71.9,70.0,32.13,East,84,0.0,-999.0,92,-99.99,,,0.00,weatherlink.com 1.10,2013-06-26 06:02:00,
2013-06-26 02:18:00,71.9,69.0,32.13,East,84,0.0,-999.0,91,-99.99,,,0.00,weatherlink.com 1.10,2013-06-26 06:18:00,
2013-06-26 02:32:00,71.7,69.0,32.13,East,84,0.0,-999.0,91,-99.99,,,0.00,weatherlink.com 1.10,2013-06-26 06:32:00,
2013-06-26 02:47:00,71.5,69.0,32.13,East,84,0.0,-999.0,92,-99.99,,,0.00,weatherlink.com 1.10,2013-06-26 06:47:00,
2013-06-26 03:02:00,71.3,69.0,32.13,East,84,0.0,-999.0,92,-99.99,,,0.00,weatherlink.com 1.10,2013-06-26 07:02:00,
2013-06-26 03:17:00,71.1,69.0,32.13,East,84,0.0,-999.0,92,-99.99,,,0.00,weatherlink.com 1.10,2013-06-26 07:17:00,
2013-06-26 03:32:00,70.9,69.0,32.13,East,84,0.0,-999.0,93,-99.99,,,0.00,weatherlink.com 1.10,2013-06-26 07:32:00,
2013-06-26 03:47:00,70.5,68.0,32.13,East,84,0.0,-999.0,93,-99.99,,,0.00,weatherlink.com 1.10,2013-06-26 07:47:00,
2013-06-26 04:02:00,70.5,68.0,32.13,East,84,0.0,-999.0,93,-99.99,,,0.00,weatherlink.com 1.10,2013-06-26 08:02:00,
2013-06-26 04:17:00,70.4,69.0,32.13,East,84,0.0,-999.0,94,-99.99,,,0.00,weatherlink.com 1.10,2013-06-26 08:17:00,
2013-06-26 04:32:00,70.5,69.0,32.13,East,84,0.0,-999.0,94,-99.99,,,0.00,weatherlink.com 1.10,2013-06-26 08:32:00,
2013-06-26 04:47:00,70.8,68.0,32.13,WNW,297,0.0,-999.0,92,-99.99,,,0.00,weatherlink.com 1.10,2013-06-26 08:47:00,
2013-06-26 05:02:00,71.1,68.0,32.13,WNW,297,0.0,-999.0,91,-99.99,,,0.00,weatherlink.com 1.10,2013-06-26 09:02:00,
2013-06-26 05:17:00,71.8,69.0,32.13,WNW,296,2.0,-999.0,90,-99.99,,,0.00,weatherlink.com 1.10,2013-06-26 09:17:00,
2013-06-26 05:32:00,72.0,68.0,32.13,WNW,290,0.0,-999.0,88,-99.99,,,0.00,weatherlink.com 1.10,2013-06-26 09:32:00,
2013-06-26 05:48:00,72.1,68.0,32.13,WNW,290,0.0,-999.0,87,-99.99,,,0.00,weatherlink.com 1.10,2013-06-26 09:48:00,
2013-06-26 06:03:00,72.3,68.0,32.13,NW,309,0.0,-999.0,86,-99.99,,,0.00,weatherlink.com 1.10,2013-06-26 10:03:00,
2013-06-26 06:18:00,72.1,68.0,32.13,NW,309,0.0,-999.0,88,-99.99,,,0.00,weatherlink.com 1.10,2013-06-26 10:18:00,
2013-06-26 06:33:00,72.0,69.0,32.13,NW,309,0.0,-999.0,89,-99.99,,,0.00,weatherlink.com 1.10,2013-06-26 10:33:00,
2013-06-26 06:47:00,72.0,69.0,32.13,NW,309,0.0,-999.0,89,-99.99,,,0.00,weatherlink.com 1.10,2013-06-26 10:47:00,
2013-06-26 07:02:00,72.6,69.0,32.13,NW,309,0.0,-999.0,89,-99.99,,,0.00,weatherlink.com 1.10,2013-06-26 11:02:00,
2013-06-26 07:17:00,73.3,70.0,32.13,NW,309,0.0,-999.0,89,-99.99,,,0.00,weatherlink.com 1.10,2013-06-26 11:17:00,
2013-06-26 07:32:00,74.1,70.0,32.13,NW,309,0.0,-999.0,88,-99.99,,,0.00,weatherlink.com 1.10,2013-06-26 11:32:00,
2013-06-26 07:48:00,74.9,70.0,32.13,NW,309,0.0,-999.0,85,-99.99,,,0.00,weatherlink.com 1.10,2013-06-26 11:48:00,
2013-06-26 08:03:00,76.3,71.0,32.13,NW,309,0.0,-999.0,83,-99.99,,,0.00,weatherlink.com 1.10,2013-06-26 12:03:00,
2013-06-26 08:18:00,77.7,72.0,32.13,NW,309,0.0,-999.0,82,-99.99,,,0.00,weatherlink.com 1.10,2013-06-26 12:18:00,
2013-06-26 08:33:00,80.0,73.0,32.13,NW,309,0.0,-999.0,79,-99.99,,,0.00,weatherlink.com 1.10,2013-06-26 12:33:00,
2013-06-26 08:48:00,81.6,73.0,32.13,NW,309,0.0,-999.0,75,-99.99,,,0.00,weatherlink.com 1.10,2013-06-26 12:48:00,
2013-06-26 09:03:00,82.9,73.0,32.13,NW,309,0.0,-999.0,72,-99.99,,,0.00,weatherlink.com 1.10,2013-06-26 13:03:00,
2013-06-26 09:18:00,84.1,73.0,32.05,NW,311,0.0,-999.0,70,-99.99,,,0.00,weatherlink.com 1.10,2013-06-26 13:18:00,
2013-06-26 09:33:00,85.1,74.0,32.05,ESE,118,0.0,-999.0,70,-99.99,,,0.00,weatherlink.com 1.10,2013-06-26 13:33:00,
2013-06-26 09:48:00,85.4,73.0,31.75,WSW,244,0.0,-999.0,67,-99.99,,,0.00,weatherlink.com 1.10,2013-06-26 13:48:00,
2013-06-26 10:03:00,86.1,74.0,31.75,WSW,251,0.0,-999.0,67,-99.99,,,0.00,weatherlink.com 1.10,2013-06-26 14:03:00,
2013-06-26 10:18:00,86.4,75.0,31.75,WSW,251,0.0,-999.0,68,-99.99,,,0.00,weatherlink.com 1.10,2013-06-26 14:18:00,
2013-06-26 10:33:00,86.7,74.0,31.75,WSW,251,0.0,-999.0,66,-99.99,,,0.00,weatherlink.com 1.10,2013-06-26 14:33:00,
2013-06-26 10:48:00,87.1,74.0,31.75,WSW,251,0.0,-999.0,66,-99.99,,,0.00,weatherlink.com 1.10,2013-06-26 14:48:00,
2013-06-26 11:03:00,87.1,74.0,31.75,WNW,294,0.0,-999.0,66,-99.99,,,0.00,weatherlink.com 1.10,2013-06-26 15:03:00,
2013-06-26 11:18:00,87.3,76.0,31.75,WNW,294,0.0,-999.0,68,-99.99,,,0.00,weatherlink.com 1.10,2013-06-26 15:18:00,
2013-06-26 11:33:00,87.7,75.0,31.75,WNW,294,0.0,-999.0,66,-99.99,,,0.00,weatherlink.com 1.10,2013-06-26 15:33:00,
2013-06-26 11:48:00,87.9,75.0,31.75,NW,313,0.0,-999.0,66,-99.99,,,0.00,weatherlink.com 1.10,2013-06-26 15:48:00,
2013-06-26 12:03:00,88.4,76.0,31.75,South,178,0.0,-999.0,66,-99.99,,,0.00,weatherlink.com 1.10,2013-06-26 16:03:00,
2013-06-26 12:18:00,88.6,76.0,31.75,South,180,0.0,-999.0,67,-99.99,,,0.00,weatherlink.com 1.10,2013-06-26 16:18:00,
2013-06-26 12:33:00,88.8,76.0,31.75,ESE,123,0.0,-999.0,67,-99.99,,,0.00,weatherlink.com 1.10,2013-06-26 16:33:00,
2013-06-26 12:48:00,89.4,77.0,31.75,NNE,30,0.0,-999.0,67,-99.99,,,0.00,weatherlink.com 1.10,2013-06-26 16:48:00,
2013-06-26 13:03:00,89.7,78.0,31.75,SE,132,0.0,-999.0,68,-99.99,,,0.00,weatherlink.com 1.10,2013-06-26 17:03:00,
2013-06-26 13:18:00,89.9,77.0,31.75,ESE,121,0.0,-999.0,65,-99.99,,,0.00,weatherlink.com 1.10,2013-06-26 17:18:00,
2013-06-26 13:33:00,89.8,77.0,31.75,ESE,111,0.0,-999.0,65,-99.99,,,0.00,weatherlink.com 1.10,2013-06-26 17:33:00,
2013-06-26 13:48:00,89.8,77.0,31.75,SE,127,0.0,-999.0,67,-99.99,,,0.00,weatherlink.com 1.10,2013-06-26 17:48:00,
2013-06-26 14:04:00,90.0,77.0,31.75,SE,127,0.0,-999.0,65,-99.99,,,0.00,weatherlink.com 1.10,2013-06-26 18:04:00,
2013-06-26 14:19:00,90.0,77.0,31.75,NNW,336,0.0,-999.0,65,-99.99,,,0.00,weatherlink.com 1.10,2013-06-26 18:19:00,
2013-06-26 14:34:00,90.6,77.0,31.75,NW,311,0.0,-999.0,65,-99.99,,,0.00,weatherlink.com 1.10,2013-06-26 18:34:00,
2013-06-26 14:49:00,90.4,78.0,31.75,NW,311,0.0,-999.0,67,-99.99,,,0.00,weatherlink.com 1.10,2013-06-26 18:49:00,
2013-06-26 15:04:00,89.7,76.0,31.75,NW,311,0.0,-999.0,65,-99.99,,,0.00,weatherlink.com 1.10,2013-06-26 19:04:00,
2013-06-26 15:19:00,89.4,77.0,31.75,NW,311,0.0,-999.0,66,-99.99,,,0.00,weatherlink.com 1.10,2013-06-26 19:19:00,
2013-06-26 15:34:00,89.6,78.0,31.75,NW,311,0.0,-999.0,68,-99.99,,,0.00,weatherlink.com 1.10,2013-06-26 19:34:00,
2013-06-26 15:49:00,89.9,78.0,31.75,SE,140,0.0,-999.0,67,-99.99,,,0.00,weatherlink.com 1.10,2013-06-26 19:49:00,
2013-06-26 16:04:00,90.7,77.0,31.75,SE,140,0.0,-999.0,65,-99.99,,,0.00,weatherlink.com 1.10,2013-06-26 20:04:00,
2013-06-26 16:19:00,89.8,77.0,31.75,SE,140,0.0,-999.0,65,-99.99,,,0.00,weatherlink.com 1.10,2013-06-26 20:19:00,
2013-06-26 16:34:00,88.5,77.0,31.75,SE,140,0.0,-999.0,68,-99.99,,,0.00,weatherlink.com 1.10,2013-06-26 20:34:00,
2013-06-26 16:49:00,87.5,78.0,31.75,SE,130,0.0,-999.0,73,-99.99,,,0.01,weatherlink.com 1.10,2013-06-26 20:49:00,
2013-06-26 17:04:00,85.5,79.0,31.75,SE,130,0.0,-999.0,80,-99.99,,,0.01,weatherlink.com 1.10,2013-06-26 21:04:00,
2013-06-26 17:19:00,84.1,79.0,31.75,SE,130,0.0,-999.0,83,-99.99,,,0.01,weatherlink.com 1.10,2013-06-26 21:19:00,
2013-06-26 17:34:00,83.2,78.0,31.75,West,278,0.0,-999.0,84,-99.99,,,0.01,weatherlink.com 1.10,2013-06-26 21:34:00,
2013-06-26 17:49:00,83.7,78.0,31.75,West,278,0.0,-999.0,83,-99.99,,,0.01,weatherlink.com 1.10,2013-06-26 21:49:00,
2013-06-26 18:04:00,84.5,79.0,31.75,West,277,0.0,-999.0,83,-99.99,,,0.01,weatherlink.com 1.10,2013-06-26 22:04:00,
2013-06-26 18:19:00,85.1,79.0,31.75,West,278,0.0,-999.0,81,-99.99,,,0.01,weatherlink.com 1.10,2013-06-26 22:19:00,
2013-06-26 18:34:00,84.9,77.0,31.75,West,263,0.0,-999.0,77,-99.99,,,0.01,weatherlink.com 1.10,2013-06-26 22:34:00,
2013-06-26 18:49:00,84.2,76.0,31.75,WNW,292,2.0,-999.0,77,-99.99,,,0.01,weatherlink.com 1.10,2013-06-26 22:49:00,
2013-06-26 19:04:00,83.7,75.0,31.75,WNW,290,0.0,-999.0,74,-99.99,,,0.01,weatherlink.com 1.10,2013-06-26 23:04:00,
2013-06-26 19:19:00,83.1,74.0,31.75,NW,307,0.0,-999.0,74,-99.99,,,0.01,weatherlink.com 1.10,2013-06-26 23:19:00,
2013-06-26 19:34:00,82.5,74.0,31.75,NW,308,0.0,-999.0,76,-99.99,,,0.01,weatherlink.com 1.10,2013-06-26 23:34:00,
2013-06-26 19:49:00,82.2,74.0,31.75,West,273,0.0,-999.0,76,-99.99,,,0.01,weatherlink.com 1.10,2013-06-26 23:49:00,
2013-06-26 20:04:00,81.8,74.0,31.75,West,275,0.0,-999.0,77,-99.99,,,0.01,weatherlink.com 1.10,2013-06-27 00:04:00,
2013-06-26 20:19:00,81.4,74.0,31.75,WNW,283,0.0,-999.0,77,-99.99,,,0.01,weatherlink.com 1.10,2013-06-27 00:19:00,
2013-06-26 20:34:00,81.0,74.0,31.75,West,272,0.0,-999.0,79,-99.99,,,0.01,weatherlink.com 1.10,2013-06-27 00:34:00,
2013-06-26 20:49:00,80.5,74.0,31.75,SSW,192,0.0,-999.0,80,-99.99,,,0.01,weatherlink.com 1.10,2013-06-27 00:49:00,
2013-06-26 21:04:00,79.9,74.0,31.75,South,191,0.0,-999.0,81,-99.99,,,0.01,weatherlink.com 1.10,2013-06-27 01:04:00,
2013-06-26 21:19:00,79.6,74.0,31.75,SSW,192,0.0,-999.0,82,-99.99,,,0.01,weatherlink.com 1.10,2013-06-27 01:19:00,
2013-06-26 21:34:00,79.4,74.0,31.75,South,191,0.0,-999.0,83,-99.99,,,0.01,weatherlink.com 1.10,2013-06-27 01:34:00,
2013-06-26 21:49:00,79.0,74.0,31.75,South,191,0.0,-999.0,84,-99.99,,,0.01,weatherlink.com 1.10,2013-06-27 01:49:00,
2013-06-26 22:04:00,78.6,73.0,31.75,SSW,192,0.0,-999.0,84,-99.99,,,0.01,weatherlink.com 1.10,2013-06-27 02:04:00,
2013-06-26 22:19:00,78.0,72.0,31.75,SSW,192,0.0,-999.0,82,-99.99,,,0.01,weatherlink.com 1.10,2013-06-27 02:19:00,
2013-06-26 22:34:00,77.5,72.0,31.75,South,191,0.0,-999.0,82,-99.99,,,0.01,weatherlink.com 1.10,2013-06-27 02:34:00,
2013-06-26 22:49:00,76.9,71.0,31.75,SSW,192,0.0,-999.0,82,-99.99,,,0.01,weatherlink.com 1.10,2013-06-27 02:49:00,
2013-06-26 23:04:00,76.5,71.0,31.75,SSW,192,0.0,-999.0,83,-99.99,,,0.01,weatherlink.com 1.10,2013-06-27 03:04:00,
2013-06-26 23:19:00,76.3,71.0,31.75,SSW,192,0.0,-999.0,83,-99.99,,,0.01,weatherlink.com 1.10,2013-06-27 03:19:00,
2013-06-26 23:34:00,75.9,71.0,31.75,SW,233,0.0,-999.0,84,-99.99,,,0.01,weatherlink.com 1.10,2013-06-27 03:34:00,
2013-06-26 23:49:00,75.6,71.0,31.75,West,264,0.0,-999.0,84,-99.99,,,0.01,weatherlink.com 1.10,2013-06-27 03:49:00,